Time,TemperatureF,DewpointF,PressureIn,WindDirection,WindDirectionDegrees,WindSpeedMPH,WindSpeedGustMPH,Humidity,HourlyPrecipIn,Conditions,Clouds,dailyrainin,SoftwareType,DateUTC
2013-07-08 00:14:00,72.3,71.0,29.88,NNE,15,0.0,0.0,95,0.00,,,0.05,weatherlink.com 1.10,2013-07-08 04:14:00,
2013-07-08 00:29:00,72.2,71.0,29.88,NNE,15,0.0,0.0,95,0.00,,,0.05,weatherlink.com 1.10,2013-07-08 04:29:00,
2013-07-08 00:44:00,72.2,71.0,29.89,NNE,15,0.0,0.0,95,0.00,,,0.05,weatherlink.com 1.10,2013-07-08 04:44:00,
2013-07-08 00:59:00,72.0,71.0,29.90,NNE,15,0.0,0.0,95,0.00,,,0.05,weatherlink.com 1.10,2013-07-08 04:59:00,
2013-07-08 01:14:00,72.0,71.0,29.89,NNE,15,0.0,0.0,96,0.00,,,0.05,weatherlink.com 1.10,2013-07-08 05:14:00,
2013-07-08 01:29:00,71.9,71.0,29.89,NNE,15,0.0,0.0,96,0.00,,,0.05,weatherlink.com 1.10,2013-07-08 05:29:00,
2013-07-08 01:44:00,71.8,71.0,29.89,NNE,15,0.0,0.0,96,0.00,,,0.05,weatherlink.com 1.10,2013-07-08 05:44:00,
2013-07-08 01:59:00,71.7,71.0,29.89,NNE,15,0.0,0.0,96,0.00,,,0.05,weatherlink.com 1.10,2013-07-08 05:59:00,
2013-07-08 02:14:00,71.7,71.0,29.89,NNE,15,0.0,0.0,96,0.00,,,0.05,weatherlink.com 1.10,2013-07-08 06:14:00,
2013-07-08 02:29:00,71.5,70.0,29.89,NNE,15,0.0,0.0,96,0.00,,,0.05,weatherlink.com 1.10,2013-07-08 06:29:00,
2013-07-08 02:44:00,71.4,71.0,29.89,NNE,15,0.0,0.0,97,0.00,,,0.00,weatherlink.com 1.10,2013-07-08 06:44:00,
2013-07-08 02:59:00,71.2,70.0,29.89,NNE,15,0.0,0.0,97,0.00,,,0.00,weatherlink.com 1.10,2013-07-08 06:59:00,
2013-07-08 03:14:00,71.2,70.0,29.89,NNE,15,0.0,0.0,97,0.00,,,0.00,weatherlink.com 1.10,2013-07-08 07:14:00,
2013-07-08 03:29:00,71.2,70.0,29.89,NNE,15,0.0,0.0,97,0.00,,,0.00,weatherlink.com 1.10,2013-07-08 07:29:00,
2013-07-08 03:44:00,71.3,70.0,29.89,NNE,15,0.0,0.0,97,0.00,,,0.00,weatherlink.com 1.10,2013-07-08 07:44:00,
2013-07-08 03:59:00,71.4,71.0,29.89,NNE,15,0.0,0.0,97,0.00,,,0.00,weatherlink.com 1.10,2013-07-08 07:59:00,
2013-07-08 04:14:00,71.5,71.0,29.89,NNE,15,0.0,0.0,98,0.00,,,0.00,weatherlink.com 1.10,2013-07-08 08:14:00,
2013-07-08 04:29:00,71.5,71.0,29.90,NNE,15,0.0,0.0,98,0.00,,,0.00,weatherlink.com 1.10,2013-07-08 08:29:00,
2013-07-08 04:44:00,71.5,71.0,29.90,NNE,15,1.0,2.0,98,0.00,,,0.00,weatherlink.com 1.10,2013-07-08 08:44:00,
2013-07-08 04:59:00,71.5,71.0,29.91,NNE,15,0.0,0.0,98,0.00,,,0.00,weatherlink.com 1.10,2013-07-08 08:59:00,
2013-07-08 05:14:00,71.5,71.0,29.91,NNE,18,0.0,0.0,98,0.00,,,0.00,weatherlink.com 1.10,2013-07-08 09:14:00,
2013-07-08 05:29:00,71.5,71.0,29.91,North,360,0.0,0.0,97,0.00,,,0.00,weatherlink.com 1.10,2013-07-08 09:29:00,
2013-07-08 05:44:00,71.4,71.0,29.91,North,360,0.0,0.0,97,0.00,,,0.00,weatherlink.com 1.10,2013-07-08 09:44:00,
2013-07-08 05:59:00,71.4,71.0,29.91,North,360,0.0,0.0,97,0.00,,,0.00,weatherlink.com 1.10,2013-07-08 09:59:00,
2013-07-08 06:14:00,71.4,71.0,29.93,North,360,0.0,0.0,97,0.00,,,0.00,weatherlink.com 1.10,2013-07-08 10:14:00,
2013-07-08 06:29:00,71.4,71.0,29.92,North,360,0.0,0.0,98,0.00,,,0.00,weatherlink.com 1.10,2013-07-08 10:29:00,
2013-07-08 06:44:00,71.8,71.0,29.92,North,360,0.0,0.0,98,0.00,,,0.00,weatherlink.com 1.10,2013-07-08 10:44:00,
2013-07-08 06:59:00,72.3,71.0,29.92,North,360,0.0,0.0,97,0.00,,,0.00,weatherlink.com 1.10,2013-07-08 10:59:00,
2013-07-08 07:14:00,73.5,72.0,29.93,North,360,0.0,0.0,94,0.00,,,0.00,weatherlink.com 1.10,2013-07-08 11:14:00,
2013-07-08 07:29:00,74.4,71.0,29.93,North,360,0.0,0.0,90,0.00,,,0.00,weatherlink.com 1.10,2013-07-08 11:29:00,
2013-07-08 07:45:00,75.4,71.0,29.93,North,360,0.0,0.0,87,0.00,,,0.00,weatherlink.com 1.10,2013-07-08 11:45:00,
2013-07-08 08:00:00,75.5,71.0,29.93,SSE,163,0.0,0.0,85,0.00,,,0.00,weatherlink.com 1.10,2013-07-08 12:00:00,
2013-07-08 08:15:00,76.2,71.0,29.94,WSW,240,0.0,1.0,85,0.00,,,0.00,weatherlink.com 1.10,2013-07-08 12:15:00,
2013-07-08 08:30:00,76.1,71.0,29.94,WSW,240,0.0,3.0,85,0.00,,,0.00,weatherlink.com 1.10,2013-07-08 12:30:00,
2013-07-08 08:45:00,76.2,71.0,29.94,WSW,245,0.0,0.0,84,0.00,,,0.00,weatherlink.com 1.10,2013-07-08 12:45:00,
2013-07-08 09:00:00,77.1,71.0,29.94,West,279,0.0,3.0,81,0.00,,,0.00,weatherlink.com 1.10,2013-07-08 13:00:00,
2013-07-08 09:15:00,78.0,71.0,29.94,WNW,286,0.0,5.0,79,0.00,,,0.00,weatherlink.com 1.10,2013-07-08 13:15:00,
2013-07-08 09:30:00,77.5,70.0,29.94,West,273,0.0,7.0,78,0.00,,,0.00,weatherlink.com 1.10,2013-07-08 13:30:00,
2013-07-08 09:45:00,78.0,70.0,29.93,WNW,286,0.0,9.0,76,0.00,,,0.00,weatherlink.com 1.10,2013-07-08 13:45:00,
2013-07-08 10:00:00,78.6,70.0,29.94,West,276,2.0,9.0,75,0.00,,,0.00,weatherlink.com 1.10,2013-07-08 14:00:00,
2013-07-08 10:15:00,78.2,70.0,29.94,WNW,295,4.0,6.0,77,0.00,,,0.00,weatherlink.com 1.10,2013-07-08 14:15:00,
2013-07-08 10:30:00,77.9,71.0,29.94,West,279,0.0,7.0,78,0.00,,,0.00,weatherlink.com 1.10,2013-07-08 14:30:00,
2013-07-08 10:45:00,77.2,70.0,29.94,West,275,0.0,6.0,78,0.00,,,0.00,weatherlink.com 1.10,2013-07-08 14:45:00,
2013-07-08 11:00:00,77.4,70.0,29.94,West,275,0.0,4.0,79,0.00,,,0.00,weatherlink.com 1.10,2013-07-08 15:00:00,
2013-07-08 11:15:00,78.2,71.0,29.95,NNW,348,0.0,5.0,78,0.00,,,0.00,weatherlink.com 1.10,2013-07-08 15:15:00,
2013-07-08 11:30:00,78.4,71.0,29.95,NNW,344,0.0,1.0,78,0.00,,,0.00,weatherlink.com 1.10,2013-07-08 15:30:00,
2013-07-08 11:45:00,77.2,70.0,29.96,West,279,0.0,6.0,78,0.00,,,0.00,weatherlink.com 1.10,2013-07-08 15:45:00,
2013-07-08 12:00:00,77.0,70.0,29.96,West,281,2.0,6.0,80,0.00,,,0.00,weatherlink.com 1.10,2013-07-08 16:00:00,
2013-07-08 12:15:00,76.8,70.0,29.96,NNW,332,3.0,7.0,80,0.00,,,0.00,weatherlink.com 1.10,2013-07-08 16:15:00,
2013-07-08 12:30:00,77.8,70.0,29.96,WSW,254,0.0,5.0,76,0.00,,,0.00,weatherlink.com 1.10,2013-07-08 16:30:00,
2013-07-08 13:00:00,79.5,70.0,29.96,NNW,335,0.0,6.0,73,0.00,,,0.00,weatherlink.com 1.10,2013-07-08 17:00:00,
2013-07-08 13:15:00,79.5,71.0,29.96,NNW,338,0.0,6.0,74,0.00,,,0.00,weatherlink.com 1.10,2013-07-08 17:15:00,
2013-07-08 13:30:00,79.5,70.0,29.96,West,267,3.0,8.0,73,0.00,,,0.00,weatherlink.com 1.10,2013-07-08 17:30:00,
2013-07-08 14:00:00,81.0,70.0,29.95,West,261,4.0,8.0,70,0.00,,,0.00,weatherlink.com 1.10,2013-07-08 18:00:00,
2013-07-08 14:15:00,80.1,70.0,29.94,WSW,257,0.0,4.0,71,0.00,,,0.00,weatherlink.com 1.10,2013-07-08 18:15:00,
2013-07-08 14:30:00,80.9,72.0,29.94,WNW,293,0.0,5.0,73,0.00,,,0.00,weatherlink.com 1.10,2013-07-08 18:30:00,
2013-07-08 14:45:00,81.7,70.0,29.93,WNW,290,1.0,11.0,68,0.00,,,0.00,weatherlink.com 1.10,2013-07-08 18:45:00,
2013-07-08 15:00:00,82.0,70.0,29.93,West,279,2.0,9.0,67,0.00,,,0.00,weatherlink.com 1.10,2013-07-08 19:00:00,
2013-07-08 15:30:00,83.6,71.0,29.93,WNW,286,1.0,8.0,65,0.00,,,0.00,weatherlink.com 1.10,2013-07-08 19:30:00,
2013-07-08 15:45:00,84.7,70.0,29.92,WNW,302,10.0,10.0,62,0.00,,,0.00,weatherlink.com 1.10,2013-07-08 19:45:00,
2013-07-08 17:00:00,84.3,70.0,29.91,NNW,344,0.0,9.0,63,0.00,,,0.00,weatherlink.com 1.10,2013-07-08 21:00:00,
2013-07-08 17:15:00,84.6,70.0,29.90,WNW,288,3.0,7.0,62,0.00,,,0.00,weatherlink.com 1.10,2013-07-08 21:15:00,
2013-07-08 17:45:00,84.2,70.0,29.90,NW,315,0.0,7.0,62,0.00,,,0.00,weatherlink.com 1.10,2013-07-08 21:45:00,
2013-07-08 18:01:00,84.3,69.0,29.90,WNW,291,2.0,6.0,61,0.00,,,0.00,weatherlink.com 1.10,2013-07-08 22:01:00,
2013-07-08 18:30:00,84.0,69.0,29.90,West,259,4.0,6.0,61,0.00,,,0.00,weatherlink.com 1.10,2013-07-08 22:30:00,
2013-07-08 18:46:00,84.0,70.0,29.90,West,263,0.0,5.0,62,0.00,,,0.00,weatherlink.com 1.10,2013-07-08 22:46:00,
2013-07-08 19:45:00,82.5,72.0,29.91,WNW,283,0.0,0.0,71,0.00,,,0.00,weatherlink.com 1.10,2013-07-08 23:45:00,
2013-07-08 20:45:00,79.1,72.0,29.94,WNW,283,0.0,0.0,78,0.00,,,0.00,weatherlink.com 1.10,2013-07-09 00:45:00,
2013-07-08 21:30:00,77.9,72.0,29.95,WNW,283,0.0,0.0,82,0.00,,,0.00,weatherlink.com 1.10,2013-07-09 01:30:00,
2013-07-08 21:46:00,77.4,72.0,29.96,WNW,283,0.0,0.0,83,0.00,,,0.00,weatherlink.com 1.10,2013-07-09 01:46:00,
2013-07-08 22:31:00,76.3,72.0,29.96,WNW,283,0.0,0.0,86,0.00,,,0.00,weatherlink.com 1.10,2013-07-09 02:31:00,
2013-07-08 22:46:00,75.9,72.0,29.96,SSE,155,0.0,4.0,86,0.00,,,0.00,weatherlink.com 1.10,2013-07-09 02:46:00,
2013-07-08 23:01:00,75.7,71.0,29.96,SSE,156,0.0,0.0,86,0.00,,,0.00,weatherlink.com 1.10,2013-07-09 03:01:00,
2013-07-08 23:16:00,75.7,72.0,29.98,ENE,75,7.0,8.0,88,0.00,,,0.00,weatherlink.com 1.10,2013-07-09 03:16:00,
2013-07-08 23:31:00,73.5,71.0,29.99,North,9,2.0,9.0,91,0.33,,,0.33,weatherlink.com 1.10,2013-07-09 03:31:00,
2013-07-08 23:46:00,70.4,68.0,29.99,NW,315,0.0,12.0,93,1.31,,,1.31,weatherlink.com 1.10,2013-07-09 03:46:00,